Location: Newark
(48.8656°N, 2.3211°E)
Time: 01:35:44
(UTC+00:00)

Envisat - Pass Details

Date: 10 December 2019
Orbit: 764 x 766 km, 98.1° (Epoch: 23 January)

Event Time Altitude Azimuth Distance (km) Brightness Sun altitude
Rises 17:36:30 0° 164° (SSE) 3,221 6.2 -16.0°
Reaches altitude 10° 17:38:48 10° 164° (SSE) 2,299 5.5 -16.3°
Maximum altitude 17:43:52 89° 242° (WSW) 774 3.0 -17.1°
Drops below altitude 10° 17:49:00 10° 346° (NNW) 2,316 5.5 -17.9°
Sets 17:51:19 0° 347° (NNW) 3,247 6.2 -18.3°
